Location: Amarillo Post Office Jordan Station
(35.1907°N, 101.9342°W)
Time: 18:02:48
(UTC+00:00)

FALCON 9 DEB - Pass Details

Date: 24 January 2021
Orbit: 376 x 391 km, 53.0° (Epoch: 01 March)

Event Time Altitude Azimuth Distance (km) Brightness Sun altitude
Exits shadow 12:47:22 - 225° (SW) 1,487 5.5 -13.3°
Reaches altitude 10° 12:47:34 10° 225° (SW) 1,409 5.4 -13.3°
Maximum altitude 12:50:43 89° 321° (NW) 389 2.8 -12.7°
Drops below altitude 10° 12:53:51 10° 45° (NE) 1,405 6.1 -12.0°
Sets 12:55:54 0° 46° (NE) 2,257 7.2 -11.6°
